sat.trackr.live / text

‹ back to catalog

ONEWEB-0353

NORAD 49282 · 2021-090D

PAYLOAD ACTIVE UNKNOWN

§ Identity

Operator
Country
UK
Launch date
2021-10-14
Launch site
VOSTO
Launch vehicle
Mass (kg)
RCS (m²)

Purposes: comms

External: N2YO · Heavens-Above · Gunter

§ Orbital elements

Epoch: 2026-05-25T03:31:41.947392Z

Period
109.55 min
Inclination
87.8944°
Eccentricity
0.0001760
Mean motion
13.14502113 rev/d
Perigee alt
1,204.5 km
Apogee alt
1,207.1 km
Semi-major
7,583.9 km
B*
-2.7452e-4
RAAN
294.2991°
Arg perigee
89.7892°
Mean anomaly
270.3439°
Rev number
22,455

§ Raw data

ONEWEB-03531 49282U 21090D   26145.14701328 -.00000089  00000+0 -27452-3 0  99922 49282  87.8944 294.2991 0001760  89.7892 270.3439 13.14502113224557

JSON: /api/v1/satellites/49282 · /tle

For live sub-satellite position, see the globe view (requires WebGL).

§ Visibility from observer

Set your observer location to see the next 7 days of passes ≥ 10°. The values pass through the URL so the page stays shareable.

No JS? Fill the form by hand. The geolocation button needs JavaScript.